• In Latvia
  • List of Countries
  • For 7 days
  • Water Temperature
  • Satellite Maps
  • Weather Map
  • Weather Widgets
  • user-avatar
    Login

    Hourly Weather Serowe

    Today, 12 December, Tuesday

    Time Temperature Precipitation Wind Pressure Humidity
    00:00 +25°C° 0 mm 5 mps 664 mmHg 60%
    01:00 +25°C° 0 mm 5 mps 664 mmHg 62%
    02:00 +23°C° 0 mm 5 mps 664 mmHg 65%
    03:00 +23°C° 0 mm 5 mps 664 mmHg 66%
    04:00 +22°C° 0 mm 4 mps 664 mmHg 68%
    05:00 +22°C° 0 mm 4 mps 664 mmHg 69%
    06:00 +23°C° 0.4 mm 4 mps 665 mmHg 65%
    07:00 +25°C° 0.4 mm 4 mps 665 mmHg 61%
    08:00 +26°C° 0.4 mm 5 mps 666 mmHg 57%
    09:00 +28°C° 0 mm 5 mps 666 mmHg 49%
    10:00 +32°C° 0 mm 5 mps 667 mmHg 41%
    11:00 +34°C° 0 mm 5 mps 667 mmHg 33%
    12:00 +35°C° 0 mm 4 mps 666 mmHg 30%
    13:00 +36°C° 0 mm 4 mps 666 mmHg 27%
    14:00 +36°C° 0 mm 3 mps 665 mmHg 24%
    15:00 +36°C° 0 mm 3 mps 665 mmHg 25%
    16:00 +36°C° 0 mm 3 mps 665 mmHg 25%
    17:00 +35°C° 0 mm 2 mps 664 mmHg 26%
    18:00 +34°C° 0 mm 3 mps 664 mmHg 28%
    19:00 +33°C° 0 mm 3 mps 663 mmHg 30%
    20:00 +30°C° 0 mm 3 mps 663 mmHg 33%
    21:00 +30°C° 0.1 mm 3 mps 664 mmHg 34%
    22:00 +29°C° 0.1 mm 3 mps 665 mmHg 36%
    23:00 +28°C° 0.1 mm 3 mps 666 mmHg 37%

    Tomorrow, 13 December, Wednesday

    Time Temperature Precipitation Wind Pressure Humidity
    00:00 +27°C° 0.2 mm 4 mps 665 mmHg 44%
    01:00 +25°C° 0.2 mm 5 mps 665 mmHg 50%
    02:00 +23°C° 0.2 mm 5 mps 664 mmHg 57%
    03:00 +23°C° 0.3 mm 4 mps 664 mmHg 60%
    04:00 +22°C° 0.3 mm 3 mps 664 mmHg 64%
    05:00 +23°C° 0.3 mm 2 mps 664 mmHg 67%
    06:00 +23°C° 0.5 mm 2 mps 665 mmHg 66%
    07:00 +24°C° 0.5 mm 2 mps 665 mmHg 64%
    08:00 +25°C° 0.5 mm 2 mps 666 mmHg 63%
    09:00 +27°C° 0 mm 2 mps 666 mmHg 54%
    10:00 +29°C° 0 mm 2 mps 666 mmHg 45%
    11:00 +33°C° 0 mm 3 mps 666 mmHg 36%
    12:00 +33°C° 0 mm 3 mps 666 mmHg 34%
    13:00 +34°C° 0 mm 3 mps 665 mmHg 32%
    14:00 +35°C° 0 mm 4 mps 664 mmHg 30%
    15:00 +34°C° 0 mm 4 mps 664 mmHg 31%
    16:00 +34°C° 0 mm 3 mps 663 mmHg 32%
    17:00 +33°C° 0 mm 3 mps 663 mmHg 33%
    18:00 +31°C° 0 mm 3 mps 663 mmHg 36%
    19:00 +30°C° 0 mm 2 mps 663 mmHg 39%
    20:00 +29°C° 0 mm 2 mps 663 mmHg 41%
    21:00 +29°C° 0 mm 2 mps 664 mmHg 42%
    22:00 +28°C° 0 mm 2 mps 664 mmHg 43%
    23:00 +28°C° 0 mm 2 mps 664 mmHg 44%

    Day after tomorrow, 14 December, Thursday

    Time Temperature Precipitation Wind Pressure Humidity
    00:00 +27°C° 0 mm 2 mps 664 mmHg 44%
    01:00 +27°C° 0 mm 2 mps 663 mmHg 45%
    02:00 +27°C° 0 mm 2 mps 663 mmHg 46%
    03:00 +26°C° 0 mm 2 mps 663 mmHg 47%
    04:00 +26°C° 0 mm 2 mps 663 mmHg 48%
    05:00 +26°C° 0 mm 2 mps 663 mmHg 49%
    06:00 +27°C° 0 mm 2 mps 664 mmHg 45%
    07:00 +29°C° 0 mm 2 mps 665 mmHg 41%
    08:00 +30°C° 0 mm 2 mps 666 mmHg 37%
    09:00 +32°C° 0 mm 2 mps 666 mmHg 32%
    10:00 +35°C° 0 mm 2 mps 666 mmHg 28%
    11:00 +36°C° 0 mm 2 mps 667 mmHg 24%
    12:00 +36°C° 0 mm 2 mps 666 mmHg 23%
    13:00 +35°C° 0 mm 1 mps 665 mmHg 23%
    14:00 +35°C° 0 mm 1 mps 665 mmHg 22%
    15:00 +36°C° 0.3 mm 2 mps 665 mmHg 25%
    16:00 +35°C° 0.3 mm 3 mps 664 mmHg 27%
    17:00 +34°C° 0.3 mm 4 mps 664 mmHg 29%
    18:00 +33°C° 0 mm 4 mps 664 mmHg 31%
    19:00 +31°C° 0 mm 3 mps 664 mmHg 33%
    20:00 +29°C° 0 mm 3 mps 665 mmHg 35%
    21:00 +28°C° 0 mm 4 mps 665 mmHg 41%
    22:00 +27°C° 0 mm 4 mps 665 mmHg 47%
    23:00 +27°C° 0 mm 4 mps 666 mmHg 52%

    15 December, Friday

    Time Temperature Precipitation Wind Pressure Humidity
    00:00 +24°C° 0 mm 6 mps 666 mmHg 60%
    01:00 +23°C° 0 mm 7 mps 666 mmHg 68%
    02:00 +21°C° 0 mm 8 mps 665 mmHg 76%
    03:00 +20°C° 0 mm 8 mps 666 mmHg 76%
    04:00 +20°C° 0 mm 8 mps 666 mmHg 75%
    05:00 +18°C° 0 mm 9 mps 666 mmHg 75%
    06:00 +20°C° 0 mm 8 mps 667 mmHg 73%
    07:00 +20°C° 0 mm 8 mps 668 mmHg 70%
    08:00 +21°C° 0 mm 8 mps 668 mmHg 68%
    09:00 +22°C° 0 mm 8 mps 669 mmHg 63%
    10:00 +23°C° 0 mm 8 mps 669 mmHg 59%
    11:00 +26°C° 0 mm 8 mps 669 mmHg 54%
    12:00 +27°C° 0 mm 7 mps 669 mmHg 50%
    13:00 +29°C° 0 mm 7 mps 668 mmHg 45%
    14:00 +30°C° 0 mm 6 mps 668 mmHg 41%
    15:00 +30°C° 0 mm 6 mps 667 mmHg 40%
    16:00 +30°C° 0 mm 6 mps 667 mmHg 39%
    17:00 +32°C° 0 mm 6 mps 667 mmHg 39%
    18:00 +29°C° 0 mm 5 mps 667 mmHg 42%
    19:00 +28°C° 0 mm 4 mps 667 mmHg 46%
    20:00 +26°C° 0 mm 4 mps 667 mmHg 49%
    21:00 +26°C° 0 mm 4 mps 667 mmHg 50%
    22:00 +25°C° 0 mm 5 mps 668 mmHg 51%
    23:00 +23°C° 0 mm 5 mps 668 mmHg 51%

    16 December, Saturday

    Time Temperature Precipitation Wind Pressure Humidity
    00:00 +23°C° 0 mm 6 mps 668 mmHg 53%
    01:00 +22°C° 0 mm 6 mps 667 mmHg 55%
    02:00 +21°C° 0 mm 6 mps 667 mmHg 57%
    03:00 +21°C° 0 mm 6 mps 667 mmHg 59%
    04:00 +20°C° 0 mm 6 mps 667 mmHg 61%
    05:00 +20°C° 0 mm 6 mps 667 mmHg 63%
    06:00 +20°C° 0 mm 6 mps 668 mmHg 61%
    07:00 +21°C° 0 mm 6 mps 668 mmHg 58%
    08:00 +22°C° 0 mm 7 mps 669 mmHg 55%
    09:00 +24°C° 0 mm 6 mps 669 mmHg 49%
    10:00 +28°C° 0 mm 6 mps 669 mmHg 42%
    11:00 +30°C° 0 mm 5 mps 669 mmHg 35%
    12:00 +32°C° 0 mm 5 mps 669 mmHg 32%
    13:00 +33°C° 0 mm 5 mps 668 mmHg 28%
    14:00 +35°C° 0 mm 5 mps 668 mmHg 25%
    15:00 +34°C° 0 mm 5 mps 667 mmHg 24%
    16:00 +34°C° 0 mm 4 mps 667 mmHg 24%
    17:00 +34°C° 0 mm 4 mps 666 mmHg 24%
    18:00 +32°C° 0 mm 4 mps 666 mmHg 28%
    19:00 +30°C° 0 mm 4 mps 666 mmHg 32%
    20:00 +28°C° 0 mm 3 mps 667 mmHg 36%
    21:00 +27°C° 0 mm 4 mps 667 mmHg 37%
    22:00 +27°C° 0 mm 4 mps 667 mmHg 38%
    23:00 +26°C° 0 mm 4 mps 667 mmHg 40%

    17 December, Sunday

    Time Temperature Precipitation Wind Pressure Humidity
    00:00 +25°C° 0 mm 4 mps 666 mmHg 42%
    01:00 +25°C° 0 mm 4 mps 666 mmHg 44%
    02:00 +23°C° 0 mm 4 mps 666 mmHg 46%
    03:00 +22°C° 0 mm 4 mps 666 mmHg 49%
    04:00 +22°C° 0 mm 4 mps 666 mmHg 52%
    05:00 +22°C° 0 mm 4 mps 666 mmHg 54%
    06:00 +23°C° 0 mm 4 mps 667 mmHg 50%
    07:00 +25°C° 0 mm 4 mps 667 mmHg 47%
    08:00 +27°C° 0 mm 5 mps 668 mmHg 43%
    09:00 +29°C° 0 mm 4 mps 668 mmHg 37%
    10:00 +32°C° 0 mm 4 mps 668 mmHg 31%
    11:00 +34°C° 0 mm 4 mps 668 mmHg 24%
    12:00 +35°C° 0 mm 4 mps 668 mmHg 21%
    13:00 +36°C° 0 mm 3 mps 667 mmHg 18%
    14:00 +37°C° 0 mm 3 mps 667 mmHg 15%
    15:00 +36°C° 0 mm 3 mps 666 mmHg 14%
    16:00 +36°C° 0 mm 3 mps 666 mmHg 14%
    17:00 +36°C° 0 mm 3 mps 665 mmHg 13%
    18:00 +34°C° 0 mm 3 mps 665 mmHg 16%
    19:00 +31°C° 0 mm 3 mps 665 mmHg 18%
    20:00 +30°C° 0 mm 3 mps 665 mmHg 20%
    21:00 +29°C° 0 mm 3 mps 666 mmHg 21%
    22:00 +28°C° 0 mm 3 mps 666 mmHg 22%
    23:00 +28°C° 0 mm 3 mps 666 mmHg 23%
    Show more